Flag for Norway Weather past 2 weeks in Fauske, Norway

Now
57 °F

Broken clouds.


Feels Like: 56 °F
Forecast: 50 / 67 °F
Wind: 6 mph from North

Location: Bodo Vi

Current Time: Jul 6, 2015 at 6:20:15 PM

Latest Report: Jul 6, 2015 at 5:50 PM


Visibility: N/A

Pressure: 29.65 "Hg

Humidity: 72%

Dew point: 48 °F

Location of FauskeLocation

Historic Weather in Fauske — Graph

°F

Fauske temperature yesterday

Maximum temperature yesterday: 57 °F (at 2:20 PM)
Minimum temperature yesterday: 48 °F (at 12:50 AM)
Average temperature yesterday: 54 °F

Past Weeks' High & Low Weather Summary

 TemperatureHumidityPressure
High64 °F (Jul 6, 10:50 AM)100% (Jun 23, 2:50 AM)30.24 "Hg (Jun 23, 2:50 AM)
Low45 °F (Jun 28, 3:50 AM)49% (Jul 6, 11:20 AM)29.65 "Hg (Jul 6, 3:50 PM)
Average51 °F83%29.97 "Hg
* Reported Jun 21 4:20 PM — Jul 6 4:50 PM, Fauske, Weather by CustomWeather, © 2015

Note: Actual official high and low records may vary slightly from our data, if they occured in-between our weather recording intervals... More about our weather records

Advertising

Fauske weather history for previous 24 hours

 ConditionsComfort  
Time TempWeatherWind HumidityBarometerVisibility
4:50 PM
Mon, Jul 6
63 °FScattered clouds.9 mph56%29.65 "HgN/A
4:20 PM61 °FScattered clouds.8 mph63%29.65 "HgN/A
3:50 PM61 °FScattered clouds.7 mph55%29.65 "HgN/A
3:20 PM61 °FScattered clouds.12 mph55%29.68 "HgN/A
2:50 PM63 °FScattered clouds.10 mph59%29.68 "HgN/A
2:20 PM63 °FScattered clouds.9 mph59%29.68 "HgN/A
1:50 PM63 °FScattered clouds.10 mph59%29.71 "HgN/A
1:20 PM63 °FPassing clouds.14 mph59%29.71 "HgN/A
12:50 PM63 °FPassing clouds.12 mph59%29.71 "HgN/A
12:20 PM63 °FPassing clouds.13 mph56%29.71 "HgN/A
11:50 AM63 °FPassing clouds.12 mph56%29.74 "HgN/A
11:20 AM63 °FPassing clouds.12 mph49%29.74 "HgN/A
10:50 AM64 °FPassing clouds.10 mph56%29.74 "HgN/A
10:20 AM63 °FPassing clouds.8 mph59%29.77 "HgN/A
9:50 AM63 °FSunny.9 mph59%29.77 "Hg10 mi
9:20 AM59 °FSunny.6 mph63%29.80 "Hg10 mi
8:50 AM59 °FSunny.13 mph63%29.80 "Hg10 mi
8:20 AM57 °FSunny.10 mph63%29.80 "Hg10 mi
7:50 AM55 °FSunny.9 mph63%29.83 "Hg10 mi
7:20 AM55 °FSunny.10 mph63%29.83 "Hg10 mi
6:50 AM55 °FSunny.9 mph59%29.86 "Hg10 mi
6:20 AM54 °FSunny.8 mph63%29.86 "Hg10 mi
5:50 AM52 °FSunny.9 mph62%29.89 "Hg10 mi
4:50 AM52 °FPassing clouds.9 mph58%29.92 "HgN/A
3:50 AM52 °FSunny.7 mph58%29.92 "Hg10 mi
2:50 AM50 °FSunny.8 mph62%29.95 "Hg10 mi
1:50 AM54 °FSunny.13 mph54%29.98 "Hg10 mi
12:50 AM52 °FSunny.8 mph67%30.01 "Hg10 mi
11:50 PM
Sun, Jul 5
52 °FSunny.6 mph67%30.01 "Hg10 mi
11:20 PM54 °FSunny.6 mph72%30.01 "Hg10 mi
10:50 PM54 °FSunny.7 mph77%30.04 "Hg10 mi
10:20 PM54 °FSunny.9 mph77%30.04 "Hg10 mi
9:50 PM54 °FSunny.10 mph77%30.04 "Hg10 mi
9:20 PM54 °FSunny.13 mph72%30.07 "Hg10 mi
8:50 PM55 °FSunny.14 mph67%30.07 "Hg10 mi
8:20 PM55 °FSunny.14 mph67%30.07 "Hg10 mi
7:50 PM55 °FSunny.12 mph67%30.09 "Hg10 mi
7:20 PM55 °FSunny.12 mph67%30.09 "Hg10 mi
6:50 PM57 °FSunny.12 mph63%30.09 "Hg10 mi
6:20 PM57 °FSunny.13 mph63%30.12 "Hg10 mi
Weather by CustomWeather, © 2015

See weather overviewHow to use our weather pages